Location: Unspecified
(0.0000°N, 0.0000°E)
Time: 04:22:33
(UTC+00:00)

Clementine 1 - Visible Passes

Search period start: 08 June 2023 00:00
Search period end: 18 June 2023 00:00
Orbit: 801 x 409886 km, 63.8° (Epoch: 17 February)

Date Brightness Start Highest point End Pass type
(mag) Time Alt. Az. Time Alt. Az. Time Alt. Az.
08 Jun ? 02:11:49 10° SE 07:23:09 85° S 12:41:15 10° W visible
09 Jun ? 02:31:03 10° E 07:45:08 80° N 13:00:54 10° WNW visible
10 Jun ? 02:36:17 10° ENE 07:50:25 75° N 13:05:37 10° WNW visible
11 Jun ? 02:38:35 10° ENE 07:52:31 73° N 13:07:16 10° WNW visible
12 Jun ? 02:39:53 10° ENE 07:53:27 70° N 13:07:44 10° WNW visible
13 Jun ? 02:40:52 10° ENE 07:53:56 68° N 13:07:41 10° WNW visible
14 Jun ? 02:41:56 10° ENE 07:54:22 67° N 13:07:31 10° WNW visible
15 Jun ? 02:43:35 10° ENE 07:55:09 64° N 13:07:32 10° WNW visible
16 Jun ? 02:46:30 10° ENE 07:56:48 62° N 13:08:10 10° WNW visible
17 Jun ? 02:52:17 10° ENE 08:00:29 59° N 13:10:23 10° WNW visible
